Change the Weather History Date:

Thursday, May 15, 2014

  Actual Average (KGRB) Record (KGRB)
Temperature  
Mean Temperature 44 °F 55 °F  
Max Temperature 50 °F 66 °F 87 °F (1991)
Min Temperature 39 °F 44 °F 29 °F (1929)
Degree Days  
Heating Degree Days 20 11  
Month to date heating degree days 192  
Since 1 July heating degree days 7729  
Cooling Degree Days 0 0  
Month to date cooling degree days 0  
Year to date cooling degree days 2  
Moisture  
Dew Point 31 °F    
Average Humidity 56    
Maximum Humidity 71    
Minimum Humidity 47    
Precipitation  
Precipitation 0.00 in 0.08 in 1.50 in (1894)
Month to date precipitation 1.26  
Year to date precipitation 7.98  
Snow  
Snow 0.00 in 0.10 in T in (1997)
Month to date snowfall 0.2  
Since 1 July snowfall 51.4  
Snow Depth -    
Sea Level Pressure  
Sea Level Pressure 30.04 in    
Wind  
Wind Speed 11 mph (NNE)    
Max Wind Speed 17 mph    
Max Gust Speed 23 mph    
Visibility 10 miles    
Events      
T = Trace of Precipitation, MM = Missing Value Source: NWS Daily Summary

Daily Weather History Graph

Daily Weather History Graph

Search for Another Location

Airport or City:

Trip Planner

Search our weather history database for the weather conditions in past years. The results will help you decide how hot, cold, wet, or windy it might be!

Date:

Astronomy

May. 15, 2014 Rise Set
Actual Time 5:25 AM CDT 8:16 PM CDT
Civil Twilight 4:51 AM CDT 8:50 PM CDT
Nautical Twilight 4:08 AM CDT 9:33 PM CDT
Astronomical Twilight 3:18 AM CDT 10:24 PM CDT
Moon 9:23 PM CDT (5/15) 6:13 AM CDT (5/15)
Length of Visible Light 15h 58m
Length of Day
14h 50m
Full, 99% of the Moon is Illuminated
May 15
Full
May 21
Last Quarter
May 28
New
Jun 5
First Quarter
Jun 12
Full

Hourly Weather History & Observations

Time (CDT) Temp. Windchill Dew Point Humidity Pressure Visibility Wind Dir Wind Speed Gust Speed Precip Events Conditions
12:15 AM 48.9 °F - 32.2 °F 52% 30.13 in 10.0 mi ENE 12.7 mph 19.6 mph N/A   Overcast
12:35 AM 48.6 °F - 33.1 °F 55% 30.12 in 10.0 mi NE 9.2 mph 16.1 mph N/A   Overcast
12:55 AM 48.4 °F - 32.2 °F 54% 30.11 in 10.0 mi NE 13.8 mph 20.7 mph N/A   Overcast
1:15 AM 48.0 °F - 32.0 °F 54% 30.11 in 10.0 mi NE 10.4 mph - N/A   Overcast
1:35 AM 47.7 °F - 31.6 °F 54% 30.09 in 10.0 mi NNE 12.7 mph 16.1 mph N/A   Mostly Cloudy
1:55 AM 47.3 °F - 31.1 °F 53% 30.10 in 10.0 mi NE 10.4 mph - N/A   Overcast
2:15 AM 47.1 °F - 31.5 °F 55% 30.09 in 10.0 mi NE 9.2 mph - N/A   Overcast
2:35 AM 46.8 °F - 31.6 °F 56% 30.09 in 10.0 mi NNE 10.4 mph 16.1 mph N/A   Overcast
2:55 AM 46.6 °F - 30.9 °F 54% 30.09 in 10.0 mi NE 10.4 mph - N/A   Overcast
3:15 AM 46.4 °F 41.9 °F 31.1 °F 55% 30.09 in 10.0 mi NNE 9.2 mph - N/A   Overcast
3:35 AM 45.9 °F 41.2 °F 30.7 °F 56% 30.09 in 10.0 mi NE 9.2 mph - N/A   Overcast
3:55 AM 45.5 °F 40.8 °F 31.5 °F 58% 30.08 in 10.0 mi NNE 9.2 mph - N/A   Light Drizzle
4:15 AM 44.8 °F 39.9 °F 30.6 °F 57% 30.07 in 10.0 mi NE 9.2 mph 17.3 mph N/A   Light Drizzle
4:35 AM 45.5 °F 40.3 °F 29.8 °F 54% 30.07 in 10.0 mi NE 10.4 mph 17.3 mph N/A   Overcast
4:55 AM 45.3 °F 39.7 °F 29.8 °F 55% 30.06 in 10.0 mi NE 11.5 mph - N/A   Overcast
5:15 AM 44.8 °F 38.7 °F 30.2 °F 57% 30.06 in 10.0 mi North 12.7 mph 17.3 mph N/A   Overcast
5:35 AM 45.0 °F 39.7 °F 30.0 °F 56% 30.06 in 10.0 mi NE 10.4 mph 18.4 mph N/A   Overcast
5:55 AM 44.6 °F 39.2 °F 30.4 °F 57% 30.06 in 10.0 mi NNE 10.4 mph 19.6 mph N/A   Light Drizzle
6:15 AM 43.2 °F 36.2 °F 32.0 °F 65% 30.05 in 10.0 mi North 13.8 mph 19.6 mph N/A   Light Drizzle
6:35 AM 43.9 °F 37.5 °F 31.6 °F 62% 30.06 in 10.0 mi NNE 12.7 mph - N/A   Overcast
6:55 AM 44.1 °F 38.6 °F 31.5 °F 61% 30.04 in 10.0 mi NNE 10.4 mph - N/A   Light Drizzle
7:15 AM 45.0 °F 39.3 °F 30.2 °F 56% 30.04 in 10.0 mi NNE 11.5 mph - N/A   Overcast
7:35 AM 45.5 °F 39.9 °F 30.0 °F 55% 30.03 in 10.0 mi NNE 11.5 mph - N/A   Scattered Clouds
7:55 AM 46.2 °F 41.7 °F 30.4 °F 54% 30.03 in 10.0 mi NNE 9.2 mph - N/A   Clear
8:15 AM 46.0 °F 39.9 °F 29.8 °F 53% 30.01 in 10.0 mi North 13.8 mph - N/A   Clear
8:35 AM 47.1 °F - 30.0 °F 51% 30.02 in 10.0 mi NNE 15.0 mph 18.4 mph N/A   Clear
8:55 AM 47.3 °F - 29.7 °F 50% 30.02 in 10.0 mi North 15.0 mph 20.7 mph N/A   Clear
9:15 AM 47.7 °F - 30.0 °F 50% 30.01 in 10.0 mi North 13.8 mph 19.6 mph N/A   Clear
9:35 AM 47.7 °F - 29.7 °F 50% 30.00 in 10.0 mi North 17.3 mph 20.7 mph N/A   Clear
9:55 AM 48.4 °F - 30.7 °F 51% 29.99 in 10.0 mi NNE 16.1 mph 23.0 mph N/A   Clear
10:15 AM 48.4 °F - 29.7 °F 48% 30.00 in 10.0 mi North 17.3 mph 21.9 mph N/A   Scattered Clouds
10:35 AM 48.7 °F - 30.0 °F 48% 29.99 in 10.0 mi NNE 17.3 mph 23.0 mph N/A   Mostly Cloudy
10:55 AM 49.1 °F - 30.0 °F 48% 29.99 in 10.0 mi NNE 17.3 mph 23.0 mph N/A   Mostly Cloudy
11:15 AM 49.5 °F - 30.7 °F 49% 29.99 in 10.0 mi NNE 15.0 mph 19.6 mph N/A   Scattered Clouds
11:35 AM 49.8 °F - 30.7 °F 48% 29.99 in 10.0 mi NNE 16.1 mph - N/A   Scattered Clouds
11:55 AM 49.8 °F - 30.6 °F 48% 29.99 in 10.0 mi NNE 15.0 mph - N/A   Scattered Clouds
12:35 PM 50.0 °F - 30.7 °F 48% 29.99 in 10.0 mi North 10.4 mph 16.1 mph N/A   Overcast
12:55 PM 49.1 °F - 32.0 °F 52% 29.99 in 10.0 mi North 15.0 mph 20.7 mph N/A   Overcast
1:15 PM 50.0 °F - 32.5 °F 51% 30.00 in 10.0 mi NNE 13.8 mph 18.4 mph N/A   Mostly Cloudy
2:15 PM 49.8 °F - 33.3 °F 53% 29.99 in 10.0 mi NNE 11.5 mph 18.4 mph N/A   Overcast
2:55 PM 48.4 °F - 36.1 °F 63% 29.99 in 10.0 mi North 10.4 mph 21.9 mph N/A   Overcast
3:15 PM 49.1 °F - 34.0 °F 56% 29.99 in 10.0 mi North 11.5 mph 20.7 mph N/A   Overcast
3:35 PM 50.0 °F - 32.2 °F 50% 29.99 in 10.0 mi North 8.1 mph - N/A   Overcast
3:55 PM 49.6 °F - 34.5 °F 56% 29.98 in 10.0 mi ENE 9.2 mph - N/A   Overcast
4:15 PM 49.5 °F - 31.1 °F 49% 29.99 in 10.0 mi North 11.5 mph 17.3 mph N/A   Overcast
4:35 PM 49.3 °F - 31.1 °F 50% 29.99 in 10.0 mi North 12.7 mph - N/A   Overcast
4:55 PM 49.3 °F - 31.3 °F 50% 29.99 in 10.0 mi North 10.4 mph - N/A   Overcast
5:15 PM 48.6 °F - 30.4 °F 50% 30.00 in 10.0 mi North 12.7 mph 17.3 mph N/A   Overcast
5:35 PM 49.1 °F - 30.6 °F 49% 29.99 in 10.0 mi North 12.7 mph 16.1 mph N/A   Overcast
5:55 PM 48.7 °F - 29.3 °F 47% 30.00 in 10.0 mi NNW 12.7 mph 19.6 mph N/A   Overcast
6:15 PM 48.6 °F - 29.3 °F 47% 30.00 in 10.0 mi North 9.2 mph 16.1 mph N/A   Overcast
6:35 PM 47.5 °F - 34.2 °F 60% 30.01 in 10.0 mi NNE 13.8 mph 19.6 mph N/A   Mostly Cloudy
6:55 PM 46.4 °F 40.7 °F 33.6 °F 61% 30.02 in 10.0 mi North 12.7 mph - N/A   Mostly Cloudy
7:15 PM 46.2 °F 40.5 °F 32.5 °F 59% 30.03 in 10.0 mi North 12.7 mph 16.1 mph N/A   Mostly Cloudy
7:35 PM 45.9 °F 41.2 °F 31.6 °F 58% 30.03 in 10.0 mi North 9.2 mph 17.3 mph N/A   Scattered Clouds
7:55 PM 44.8 °F 39.0 °F 30.9 °F 58% 30.04 in 10.0 mi NNE 11.5 mph - N/A   Clear
8:15 PM 43.5 °F 37.1 °F 33.1 °F 67% 30.05 in 10.0 mi North 12.7 mph - N/A   Scattered Clouds
8:35 PM 42.4 °F 37.5 °F 32.4 °F 68% 30.06 in 10.0 mi NNE 8.1 mph - N/A   Scattered Clouds
8:55 PM 41.9 °F 36.3 °F 32.4 °F 69% 30.06 in 10.0 mi NNE 9.2 mph - N/A   Clear
9:15 PM 41.0 °F 39.0 °F 32.0 °F 70% 30.06 in 10.0 mi NNW 3.5 mph - N/A   Clear
9:35 PM 39.7 °F 37.6 °F 31.1 °F 71% 30.07 in 10.0 mi NNW 3.5 mph - N/A   Clear
9:55 PM 39.7 °F 35.6 °F 30.7 °F 70% 30.07 in 10.0 mi North 5.8 mph - N/A   Clear
10:15 PM 39.9 °F - 30.9 °F 70% 30.08 in 10.0 mi Calm Calm - N/A   Mostly Cloudy
10:35 PM 40.6 °F 35.4 °F 30.6 °F 67% 30.07 in 10.0 mi North 8.1 mph - N/A   Overcast
10:55 PM 40.6 °F 36.7 °F 30.7 °F 68% 30.07 in 10.0 mi North 5.8 mph - N/A   Overcast
11:15 PM 40.6 °F 36.7 °F 30.9 °F 68% 30.07 in 10.0 mi North 5.8 mph - N/A   Overcast
11:35 PM 40.5 °F 38.4 °F 31.1 °F 69% 30.07 in 10.0 mi North 3.5 mph - N/A   Overcast
11:55 PM 40.1 °F 35.3 °F 29.8 °F 67% 30.07 in 10.0 mi North 6.9 mph - N/A   Overcast